Weather History for Wise, VA

Change the Weather History Date:

Monday, November 5, 2012

  Actual Average Record
Temperature  
Mean Temperature 39 °F -  
Max Temperature 46 °F 55 °F 69 °F (2003)
Min Temperature 32 °F 37 °F 26 °F (1997)
Degree Days  
Heating Degree Days 26    
Moisture  
Dew Point 32 °F    
Average Humidity 79    
Maximum Humidity 100    
Minimum Humidity 53    
Precipitation  
Precipitation 0.00 in - - ()
Sea Level Pressure  
Sea Level Pressure 30.06 in    
Wind  
Wind Speed 2 mph (NNE)    
Max Wind Speed 8 mph    
Max Gust Speed -    
Visibility 10 miles    
Events      
Averages and records for this station are not official NWS values.
T = Trace of Precipitation, MM = Missing Value Source: NWS Daily Summary

Daily Weather History Graph

Daily Weather History Graph

Search for Another Location

Airport:

Trip Planner

Search our weather history database for the weather conditions in past years. The results will help you decide how hot, cold, wet, or windy it might be!

Date:

Astronomy

Nov. 05, 2012 Rise Set
Actual Time 6:58 AM EST 5:28 PM EST
Civil Twilight 6:31 AM EST 5:55 PM EST
Nautical Twilight 6:00 AM EST 6:26 PM EST
Astronomical Twilight 5:30 AM EST 6:56 PM EST
Moon 11:04 PM EST (11/5) 12:17 PM EST (11/5)
Length of Visible Light 11h 23m
Length of Day
10h 29m
Waning Gibbous, 63% of the Moon is Illuminated
Nov 5
Waning Gibbous
Nov 6
Last Quarter
Nov 13
New
Nov 20
First Quarter
Nov 28
Full

Hourly Weather History & Observations

Time (EST) Temp. Windchill Dew Point Humidity Pressure Visibility Wind Dir Wind Speed Gust Speed Precip Events Conditions
12:15 AM 35.6 °F - 33.8 °F 93% 30.07 in 10.0 mi Calm Calm - N/A   Mostly Cloudy
12:35 AM 35.6 °F - 33.8 °F 93% 30.07 in 10.0 mi Calm Calm - N/A   Overcast
12:55 AM 35.6 °F - 33.8 °F 93% 30.07 in 10.0 mi Calm Calm - N/A   Overcast
1:15 AM 35.6 °F - 32.0 °F 87% 30.07 in 10.0 mi Calm Calm - N/A   Overcast
1:35 AM 35.6 °F 32.8 °F 32.0 °F 87% 30.07 in 10.0 mi NNW 3.5 mph - N/A   Overcast
1:55 AM 35.6 °F 32.8 °F 32.0 °F 87% 30.06 in 10.0 mi NNW 3.5 mph - N/A   Mostly Cloudy
2:15 AM 35.6 °F - 32.0 °F 87% 30.07 in 10.0 mi Calm Calm - N/A   Mostly Cloudy
2:35 AM 35.6 °F - 32.0 °F 87% 30.07 in 10.0 mi Calm Calm - N/A   Mostly Cloudy
2:55 AM 33.8 °F - 33.8 °F 100% 30.07 in 10.0 mi Calm Calm - N/A   Mostly Cloudy
3:15 AM 32.0 °F - 32.0 °F 100% 30.07 in 10.0 mi Calm Calm - N/A   Scattered Clouds
3:35 AM 32.0 °F - 32.0 °F 100% 30.07 in 10.0 mi Calm Calm - N/A   Scattered Clouds
3:55 AM 32.0 °F - 32.0 °F 100% 30.06 in 10.0 mi Calm Calm - N/A   Scattered Clouds
4:15 AM 32.0 °F - 32.0 °F 100% 30.07 in 10.0 mi Calm Calm - N/A   Clear
4:35 AM 32.0 °F - 32.0 °F 100% 30.07 in 10.0 mi Calm Calm - N/A   Clear
4:55 AM 32.0 °F - 32.0 °F 100% 30.07 in 10.0 mi Calm Calm - N/A   Clear
5:15 AM 32.0 °F - 32.0 °F 100% 30.07 in 10.0 mi Calm Calm - N/A   Clear
5:35 AM 32.0 °F - 32.0 °F 100% 30.07 in 10.0 mi Calm Calm - N/A   Clear
5:55 AM 32.0 °F - 32.0 °F 100% 30.07 in 10.0 mi Calm Calm - N/A   Clear
6:15 AM 32.0 °F - 32.0 °F 100% 30.07 in 10.0 mi Calm Calm - N/A   Clear
6:35 AM 32.0 °F - 32.0 °F 100% 30.08 in 10.0 mi Calm Calm - N/A   Clear
6:55 AM 32.0 °F - 32.0 °F 100% 30.08 in 10.0 mi Calm Calm - N/A   Clear
7:15 AM 32.0 °F - 32.0 °F 100% 30.08 in 10.0 mi Calm Calm - N/A   Clear
7:35 AM 32.0 °F 28.7 °F 32.0 °F 100% 30.09 in 10.0 mi North 3.5 mph - N/A   Clear
7:55 AM 33.8 °F - 33.8 °F 100% 30.09 in 10.0 mi Calm Calm - N/A   Scattered Clouds
8:15 AM 33.8 °F - 33.8 °F 100% 30.10 in 10.0 mi Calm Calm - N/A   Scattered Clouds
8:35 AM 35.6 °F 32.8 °F 33.8 °F 93% 30.10 in 10.0 mi North 3.5 mph - N/A   Scattered Clouds
8:55 AM 37.4 °F - 33.8 °F 87% 30.10 in 10.0 mi Calm Calm - N/A   Mostly Cloudy
9:15 AM 37.4 °F 33.8 °F 33.8 °F 87% 30.09 in 10.0 mi North 4.6 mph - N/A   Scattered Clouds
9:35 AM 37.4 °F 32.8 °F 32.0 °F 81% 30.09 in 10.0 mi NNE 5.8 mph - N/A   Clear
9:55 AM 39.2 °F 35.9 °F 32.0 °F 75% 30.10 in 10.0 mi North 4.6 mph - N/A   Clear
10:15 AM 41.0 °F 36.4 °F 32.0 °F 70% 30.10 in 10.0 mi NNE 6.9 mph - N/A   Scattered Clouds
10:35 AM 41.0 °F 37.1 °F 32.0 °F 70% 30.10 in 10.0 mi NNE 5.8 mph - N/A   Mostly Cloudy
10:55 AM 41.0 °F 36.4 °F 32.0 °F 70% 30.09 in 10.0 mi NE 6.9 mph - N/A   Scattered Clouds
11:15 AM 42.8 °F 39.3 °F 32.0 °F 66% 30.09 in 10.0 mi ENE 5.8 mph - N/A   Scattered Clouds
11:35 AM 42.8 °F 38.0 °F 32.0 °F 66% 30.09 in 10.0 mi NE 8.1 mph - N/A   Clear
11:55 AM 42.8 °F 40.1 °F 32.0 °F 66% 30.09 in 10.0 mi NE 4.6 mph - N/A   Clear
12:15 PM 44.6 °F 43.1 °F 32.0 °F 61% 30.08 in 10.0 mi North 3.5 mph - N/A   Clear
12:35 PM 42.8 °F 41.1 °F 32.0 °F 66% 30.07 in 10.0 mi NNW 3.5 mph - N/A   Clear
12:55 PM 44.6 °F - 32.0 °F 61% 30.07 in 10.0 mi Calm Calm - N/A   Clear
1:15 PM 42.8 °F 41.1 °F 30.2 °F 61% 30.07 in 10.0 mi ENE 3.5 mph - N/A   Clear
1:35 PM 44.6 °F - 30.2 °F 57% 30.06 in 10.0 mi Calm Calm - N/A   Clear
1:55 PM 46.4 °F - 30.2 °F 53% 30.05 in 10.0 mi Calm Calm - N/A   Clear
2:15 PM 46.4 °F 45.2 °F 32.0 °F 57% 30.05 in 10.0 mi NNE 3.5 mph - N/A   Clear
2:35 PM 44.6 °F 43.1 °F 30.2 °F 57% 30.04 in 10.0 mi NNE 3.5 mph - N/A   Clear
2:55 PM 46.4 °F - 30.2 °F 53% 30.04 in 10.0 mi Calm Calm - N/A   Clear
3:15 PM 46.4 °F - 32.0 °F 57% 30.03 in 10.0 mi Calm Calm - N/A   Clear
3:35 PM 46.4 °F 45.2 °F 32.0 °F 57% 30.03 in 10.0 mi NNW 3.5 mph - N/A   Clear
3:55 PM 46.4 °F 44.3 °F 32.0 °F 57% 30.03 in 10.0 mi NNE 4.6 mph - N/A   Clear
4:15 PM 46.4 °F 44.3 °F 32.0 °F 57% 30.03 in 10.0 mi North 4.6 mph - N/A   Clear
4:35 PM 44.6 °F 43.1 °F 32.0 °F 61% 30.03 in 10.0 mi North 3.5 mph - N/A   Clear
5:15 PM 42.8 °F 41.1 °F 32.0 °F 66% 30.03 in 10.0 mi North 3.5 mph - N/A   Clear
5:35 PM 41.0 °F 38.0 °F 32.0 °F 70% 30.03 in 10.0 mi North 4.6 mph - N/A   Clear
5:55 PM 41.0 °F 39.0 °F 32.0 °F 70% 30.03 in 10.0 mi NNE 3.5 mph - N/A   Clear
6:15 PM 41.0 °F 39.0 °F 32.0 °F 70% 30.04 in 10.0 mi NNE 3.5 mph - N/A   Clear
6:35 PM 39.2 °F 37.0 °F 30.2 °F 70% 30.04 in 10.0 mi NNE 3.5 mph - N/A   Clear
6:55 PM 39.2 °F 37.0 °F 30.2 °F 70% 30.04 in 10.0 mi NE 3.5 mph - N/A   Clear
7:15 PM 39.2 °F 35.9 °F 30.2 °F 70% 30.04 in 10.0 mi NE 4.6 mph - N/A   Clear
7:35 PM 39.2 °F 35.9 °F 30.2 °F 70% 30.04 in 10.0 mi NE 4.6 mph - N/A   Clear
7:55 PM 37.4 °F 34.9 °F 30.2 °F 75% 30.04 in 10.0 mi NNE 3.5 mph - N/A   Clear
8:15 PM 37.4 °F 33.8 °F 30.2 °F 75% 30.05 in 10.0 mi NE 4.6 mph - N/A   Clear
8:35 PM 37.4 °F 34.9 °F 30.2 °F 75% 30.05 in 10.0 mi NE 3.5 mph - N/A   Clear
8:55 PM 37.4 °F 33.8 °F 30.2 °F 75% 30.05 in 10.0 mi NE 4.6 mph - N/A   Clear
9:15 PM 37.4 °F 33.8 °F 30.2 °F 75% 30.05 in 10.0 mi NE 4.6 mph - N/A   Clear
9:35 PM 37.4 °F - 30.2 °F 75% 30.05 in 10.0 mi Calm Calm - N/A   Clear
9:55 PM 37.4 °F 34.9 °F 28.4 °F 70% 30.04 in 10.0 mi NE 3.5 mph - N/A   Clear
10:15 PM 37.4 °F 34.9 °F 30.2 °F 75% 30.03 in 10.0 mi NE 3.5 mph - N/A   Clear
10:35 PM 37.4 °F 34.9 °F 28.4 °F 70% 30.03 in 10.0 mi NE 3.5 mph - N/A   Clear
10:55 PM 37.4 °F - 30.2 °F 75% 30.03 in 10.0 mi Calm Calm - N/A   Clear
11:15 PM 35.6 °F - 30.2 °F 81% 30.03 in 10.0 mi Calm Calm - N/A   Clear
11:35 PM 35.6 °F - 30.2 °F 81% 30.03 in 10.0 mi Calm Calm - N/A   Clear
11:55 PM 35.6 °F - 30.2 °F 81% 30.03 in 10.0 mi Calm Calm - N/A   Clear